Wind_Speed
22 22 22 22 20 18 17 16 14 13 12 13 16 16 16 16 16 17 17 16 16 16 16 16 16 15 15 14 14 13 13 13 14 14 14 14 14 14 13 12 11 11
21 22 22 22 20 17 17 15 14 13 12 14 17 16 15 15 16 16 16 16 17 17 17 16 16 16 14 14 14 14 14 14 14 14 15 15 15 14 14 13 12 12
21 22 22 21 19 17 17 17 14 13 13 15 18 17 16 16 16 15 16 17 17 17 17 17 16 16 15 15 14 14 13 12 13 13 13 14 14 14 13 13 13 12
21 20 20 20 19 17 18 19 16 16 16 17 18 17 17 17 17 16 17 18 17 17 17 17 17 17 16 15 14 13 12 12 12 12 12 13 12 12 12 12 12 12
19 19 19 20 19 17 18 19 18 19 19 19 18 17 17 18 18 18 18 18 18 18 18 17 18 18 16 15 13 12 11 12 13 13 12 12 12 11 11 11 11 11
19 19 19 19 18 16 17 19 19 20 21 20 19 19 19 19 19 19 18 18 19 19 18 17 17 17 16 15 13 11 10 11 13 13 13 12 12 11 11 11 11 11
20 19 19 19 18 16 17 19 20 20 21 21 20 20 20 20 19 18 18 18 18 17 16 16 15 15 14 14 12 11 10 12 13 13 13 12 12 11 11 11 11 10
20 19 18 18 17 17 18 20 20 20 21 22 21 19 18 18 18 18 18 18 17 16 16 16 16 15 14 14 13 11 11 12 13 13 12 11 11 10 10 10 10 10
18 17 17 16 16 17 19 20 20 20 21 22 21 19 17 17 17 17 17 17 17 18 18 17 17 16 15 14 13 12 12 13 13 13 12 11 9 9 8 9 10 9
13 13 14 15 15 17 19 20 20 20 21 21 20 18 17 17 17 17 17 17 18 18 19 19 18 16 14 13 13 14 14 14 14 13 12 10 8 7 7 7 8 8
10 10 12 15 15 16 18 20 21 20 21 20 20 19 17 17 18 19 17 17 17 18 19 18 17 16 14 14 14 15 15 14 13 12 11 10 7 5 5 7 8 8
10 11 13 16 16 16 17 19 21 21 22 21 20 17 16 17 19 19 17 16 18 19 18 18 18 16 14 13 14 15 14 13 12 11 10 9 7 5 6 8 9 9
13 13 15 16 16 16 17 19 20 20 21 21 19 17 16 18 19 18 17 18 21 21 19 18 18 16 15 14 14 13 13 12 12 12 11 9 7 7 8 9 9 10
14 15 16 15 16 17 19 20 20 18 17 18 19 18 17 18 18 17 20 23 25 23 21 19 18 18 17 16 14 13 12 13 13 12 12 10 9 9 9 9 10 11
13 15 17 17 16 18 19 19 20 18 15 17 19 18 17 17 17 18 22 25 25 24 22 21 19 19 19 17 16 15 13 12 13 14 13 11 10 10 10 9 10 10
12 13 17 19 18 18 19 19 20 20 18 19 21 19 18 20 19 18 20 21 24 25 23 21 20 19 18 18 17 17 14 12 13 15 14 11 10 11 11 10 10 10
10 10 15 20 19 19 20 19 19 20 20 22 23 21 21 21 19 18 19 18 21 23 22 21 20 16 16 19 19 17 14 12 14 16 15 12 11 11 11 10 10 10
8 8 12 18 20 19 20 19 18 20 21 24 25 23 21 22 20 19 19 18 19 20 20 20 18 15 17 20 19 16 14 13 14 15 14 13 13 12 11 11 10 9
7 7 11 17 20 20 21 21 21 22 21 23 25 24 22 22 21 19 19 19 19 18 18 19 17 16 17 18 17 15 14 14 15 15 15 15 15 14 13 13 11 9
12 10 12 17 20 22 23 24 24 23 23 24 26 25 24 22 21 20 20 20 20 19 18 18 17 16 16 16 16 16 15 15 16 16 16 17 16 16 14 12 11 9
8 10 12 16 19 22 23 24 24 23 24 27 27 25 25 23 20 19 19 20 21 20 19 18 18 17 16 16 16 16 16 16 16 15 16 16 15 12 9 7 7 5
1 6 10 15 18 20 20 21 23 23 24 26 29 27 25 23 20 19 20 21 22 21 20 19 19 19 19 18 18 17 16 16 17 17 16 13 10 8 6 5 4 3
3 5 8 11 14 19 20 19 21 24 23 22 26 28 26 24 22 20 22 22 22 22 21 21 21 21 21 20 19 18 18 17 18 18 15 10 7 6 4 3 3 3
6 6 8 9 11 17 20 17 17 20 19 19 24 27 27 26 25 25 24 23 22 21 20 21 22 21 21 21 19 19 19 19 19 17 13 10 8 6 6 7 7 8
8 8 9 12 13 16 20 19 17 18 19 19 21 24 27 27 26 25 24 23 20 17 15 16 15 13 15 17 17 17 17 17 17 15 12 10 9 8 9 9 9 13
7 8 10 12 14 17 22 24 22 22 21 19 18 19 21 18 14 13 14 15 14 10 8 9 8 6 7 9 10 11 12 12 12 12 11 11 11 12 12 12 13 15
Wind_Direction
255 251 249 248 247 246 240 231 224 217 207 202 200 194 192 195 199 202 203 200 196 193 190 191 193 194 197 199 197 198 202 206 210 214 217 219 219 219 220 219 218 224
247 245 243 239 238 236 228 221 219 214 205 197 194 192 193 197 200 199 198 194 189 187 188 190 193 194 195 196 195 196 200 205 209 214 219 220 219 218 218 218 218 222
233 235 239 235 229 226 220 216 211 204 196 190 188 191 196 198 198 193 190 190 187 185 187 189 192 194 192 191 193 196 201 205 207 212 216 215 215 217 218 217 219 223
224 225 231 230 222 217 215 213 206 195 188 186 187 192 197 195 193 190 187 188 187 185 186 187 189 189 188 189 192 196 202 205 207 208 208 207 208 213 213 212 215 216
221 220 225 225 218 213 212 209 203 194 187 187 189 191 194 192 191 190 189 189 188 188 190 189 190 190 192 193 192 197 204 205 204 204 206 207 208 210 209 208 211 211
218 220 223 222 217 213 213 207 199 193 189 188 189 190 190 190 191 192 191 191 191 193 195 193 192 193 196 196 194 200 206 203 201 202 205 209 210 212 208 206 208 207
221 224 220 219 217 213 213 207 199 195 193 193 191 190 191 190 191 192 192 193 194 196 198 197 197 198 198 200 202 208 207 200 199 201 203 205 207 209 206 202 202 201
225 224 219 216 214 210 207 204 201 198 197 196 193 191 195 195 192 193 193 193 197 201 203 203 205 207 207 208 210 210 203 195 195 195 195 197 200 202 199 195 194 195
225 223 220 215 211 208 205 203 203 201 198 196 192 192 197 198 197 199 198 199 204 208 210 212 213 214 212 208 204 202 196 190 187 186 186 186 188 190 190 188 187 187
230 231 227 220 214 210 205 203 202 199 196 192 189 192 194 192 198 206 206 210 215 215 215 215 212 208 202 195 192 192 188 183 179 177 178 176 173 179 187 185 181 180
245 244 229 220 221 219 211 202 197 195 193 189 189 191 187 187 199 211 214 217 215 210 206 200 193 190 185 183 185 184 180 176 174 172 173 170 167 175 184 183 181 181
253 245 228 220 223 227 217 203 196 194 192 190 190 188 184 192 205 212 214 209 198 190 186 182 179 179 179 181 183 182 179 178 176 175 173 169 168 174 177 179 182 183
246 242 234 226 224 223 214 205 201 199 196 192 188 185 189 200 209 213 205 192 183 179 179 178 178 180 182 183 183 182 185 185 182 179 176 172 175 178 177 177 181 183
248 243 238 232 225 218 211 204 197 195 198 195 187 189 200 207 208 202 191 183 180 179 180 181 182 182 183 183 183 185 188 186 184 183 180 178 179 177 174 173 177 180
258 245 235 230 224 216 207 197 188 185 192 195 191 195 203 198 188 180 179 182 183 182 183 185 185 184 185 184 184 186 187 185 188 189 185 181 177 171 169 170 172 174
265 248 232 226 223 215 201 190 188 189 187 189 192 194 193 185 175 169 173 181 184 184 186 187 184 186 188 187 185 185 183 180 182 184 182 177 169 162 160 163 165 167
266 252 231 223 219 211 199 192 194 192 187 188 190 189 188 185 180 177 175 177 182 186 188 186 185 188 187 184 184 184 180 174 171 173 173 171 166 158 155 161 167 170
260 252 227 218 215 207 195 188 189 188 187 190 189 185 189 190 187 185 180 175 177 181 182 183 185 188 183 180 182 181 178 176 174 172 172 172 172 167 162 164 168 173
220 234 212 204 207 206 195 187 188 186 187 193 191 186 191 194 189 187 183 179 178 177 178 182 184 182 181 180 180 180 180 181 176 172 171 171 174 176 174 173 171 170
190 200 201 198 201 203 197 193 192 186 184 192 194 189 193 197 193 190 187 186 185 182 180 182 182 179 179 179 180 181 184 183 176 171 172 172 175 177 175 176 176 173
191 192 199 200 199 198 196 194 191 188 189 192 191 191 197 197 195 193 190 190 189 186 183 183 181 179 176 178 184 187 189 189 186 182 182 182 182 178 166 159 166 167
234 193 196 198 196 192 190 189 187 192 201 196 187 189 195 195 193 191 188 189 189 186 186 185 181 178 175 176 186 194 197 198 195 192 190 184 173 161 143 134 147 164
86 167 184 193 194 188 189 195 194 195 204 200 186 185 187 184 183 181 177 179 180 180 183 183 179 177 176 177 182 190 197 202 200 198 198 191 171 163 176 203 241 263
89 127 157 172 184 182 183 196 199 191 194 196 186 179 176 172 171 171 169 169 168 168 171 174 174 173 174 176 181 186 194 202 204 207 212 210 204 217 234 241 258 278
92 110 131 146 156 155 152 160 173 171 172 178 173 164 161 160 158 159 160 159 160 161 162 167 173 175 177 181 187 194 203 207 207 213 222 221 222 235 242 246 264 280
92 114 127 136 141 135 132 138 149 153 155 161 159 154 155 149 137 139 148 151 160 173 181 184 192 204 208 209 210 218 227 221 208 212 226 229 233 241 246 253 262 267
Height
1500 1502 1503 1504 1505 1506 1507 1508 1509 1509 1510 1511 1514 1516 1518 1520 1521 1523 1524 1525 1526 1528 1529 1530 1531 1532 1533 1534 1536 1537 1538 1540 1541 1542 1543 1544 1545 1546 1547 1549 1550 1551
1497 1499 1500 1502 1503 1505 1506 1507 1508 1509 1510 1511 1513 1516 1518 1520 1521 1522 1524 1525 1526 1527 1528 1529 1531 1532 1533 1534 1535 1536 1538 1539 1540 1541 1542 1544 1545 1546 1547 1548 1549 1550
1494 1495 1497 1499 1501 1503 1505 1506 1507 1509 1510 1511 1513 1515 1517 1519 1521 1522 1524 1525 1526 1527 1528 1529 1530 1531 1533 1534 1535 1536 1537 1538 1539 1541 1542 1543 1544 1545 1546 1548 1549 1550
1492 1493 1495 1497 1499 1501 1504 1505 1506 1508 1509 1511 1513 1515 1517 1519 1521 1522 1524 1525 1526 1527 1528 1529 1530 1532 1533 1534 1535 1536 1537 1538 1539 1540 1542 1543 1544 1545 1546 1547 1548 1549
1491 1492 1494 1496 1498 1500 1503 1504 1506 1507 1509 1511 1513 1515 1516 1518 1520 1522 1524 1525 1526 1527 1528 1529 1531 1532 1533 1534 1535 1536 1537 1538 1539 1540 1541 1542 1543 1544 1545 1546 1547 1548
1492 1492 1493 1495 1497 1500 1502 1504 1506 1507 1509 1511 1512 1514 1516 1518 1520 1522 1523 1525 1526 1528 1529 1530 1531 1532 1533 1534 1535 1536 1537 1537 1538 1539 1541 1542 1542 1543 1544 1545 1546 1547
1492 1492 1493 1495 1497 1499 1502 1504 1506 1507 1509 1510 1512 1514 1516 1518 1520 1522 1523 1525 1526 1528 1529 1530 1531 1532 1533 1534 1535 1536 1536 1537 1538 1539 1540 1541 1542 1543 1544 1545 1546 1547
1491 1492 1493 1495 1496 1498 1501 1503 1505 1507 1509 1510 1512 1514 1516 1519 1521 1522 1524 1525 1526 1528 1529 1530 1532 1533 1534 1535 1535 1536 1536 1537 1538 1539 1540 1541 1542 1543 1544 1544 1546 1547
1490 1492 1494 1495 1496 1498 1500 1502 1504 1507 1508 1510 1512 1513 1515 1519 1522 1523 1524 1525 1526 1528 1529 1530 1532 1533 1534 1535 1535 1536 1536 1537 1538 1539 1540 1541 1542 1543 1543 1544 1545 1546
1491 1494 1496 1497 1497 1498 1500 1502 1504 1506 1509 1510 1512 1513 1515 1518 1521 1523 1524 1525 1526 1527 1528 1530 1531 1532 1534 1535 1536 1536 1537 1537 1538 1539 1540 1541 1542 1543 1543 1544 1545 1546
1494 1496 1497 1498 1498 1499 1500 1502 1503 1506 1509 1510 1512 1514 1515 1517 1521 1523 1524 1524 1525 1526 1527 1529 1531 1532 1534 1535 1536 1537 1537 1538 1538 1539 1540 1541 1542 1543 1543 1544 1545 1546
1495 1495 1496 1497 1499 1499 1500 1502 1504 1507 1509 1511 1512 1513 1515 1517 1520 1521 1522 1523 1524 1525 1527 1529 1531 1532 1534 1535 1536 1537 1538 1538 1539 1540 1541 1541 1542 1542 1543 1543 1545 1546
1494 1495 1496 1497 1499 1499 1501 1504 1506 1508 1510 1511 1512 1514 1515 1518 1520 1521 1521 1522 1523 1525 1527 1529 1531 1532 1534 1535 1536 1537 1538 1539 1539 1540 1541 1541 1542 1542 1542 1543 1544 1546
1493 1494 1496 1497 1498 1499 1500 1503 1505 1508 1510 1512 1513 1515 1517 1518 1519 1520 1520 1521 1523 1524 1526 1528 1530 1532 1534 1535 1536 1537 1538 1538 1539 1540 1541 1541 1542 1542 1543 1543 1544 1546
1492 1493 1495 1496 1498 1498 1500 1502 1504 1507 1510 1512 1514 1516 1518 1519 1519 1519 1520 1521 1522 1524 1526 1528 1530 1532 1534 1535 1535 1536 1537 1538 1539 1540 1541 1542 1542 1542 1543 1544 1545 1546
1491 1492 1493 1495 1496 1498 1499 1502 1504 1507 1509 1512 1515 1517 1518 1519 1519 1520 1520 1521 1522 1524 1526 1528 1530 1532 1533 1534 1535 1536 1537 1538 1539 1540 1541 1542 1543 1543 1544 1545 1546 1547
1491 1492 1492 1494 1496 1499 1501 1502 1504 1507 1509 1511 1514 1516 1517 1518 1519 1520 1520 1521 1523 1524 1526 1528 1530 1532 1533 1534 1535 1536 1538 1539 1539 1541 1542 1543 1543 1544 1545 1546 1547 1548
1490 1492 1493 1494 1496 1499 1501 1503 1505 1506 1508 1510 1512 1515 1516 1518 1519 1520 1521 1522 1523 1525 1527 1529 1531 1532 1533 1534 1535 1537 1538 1539 1540 1541 1542 1543 1544 1544 1545 1546 1547 1548
1490 1492 1493 1495 1496 1499 1501 1503 1504 1506 1508 1510 1512 1513 1515 1517 1519 1520 1521 1522 1524 1525 1527 1529 1531 1532 1533 1535 1536 1537 1538 1539 1540 1541 1542 1542 1543 1544 1545 1546 1547 1548
1491 1492 1493 1495 1497 1498 1501 1502 1503 1505 1507 1509 1511 1513 1515 1517 1518 1519 1521 1522 1524 1526 1527 1529 1531 1532 1534 1535 1536 1537 1538 1539 1540 1541 1541 1542 1543 1544 1546 1546 1547 1548
1492 1493 1494 1496 1497 1498 1500 1502 1503 1505 1506 1508 1510 1512 1515 1517 1518 1519 1521 1522 1524 1525 1527 1529 1530 1532 1533 1535 1536 1537 1538 1539 1540 1541 1542 1543 1543 1544 1546 1547 1548 1548
1495 1495 1496 1497 1498 1499 1501 1503 1504 1505 1506 1507 1508 1511 1514 1516 1518 1519 1520 1522 1523 1525 1526 1528 1530 1531 1533 1534 1536 1537 1538 1539 1540 1541 1542 1543 1544 1544 1546 1547 1548 1548
1497 1497 1498 1499 1499 1500 1502 1503 1504 1505 1506 1508 1509 1510 1513 1515 1517 1519 1520 1522 1523 1525 1526 1528 1529 1531 1533 1534 1536 1537 1537 1538 1539 1540 1541 1542 1543 1544 1545 1546 1547 1548
1501 1500 1500 1500 1501 1501 1502 1503 1505 1506 1507 1510 1511 1511 1513 1515 1517 1518 1520 1522 1524 1525 1527 1528 1529 1531 1533 1534 1535 1536 1537 1537 1538 1539 1539 1541 1543 1544 1544 1545 1546 1547
1505 1504 1504 1503 1504 1504 1503 1504 1506 1508 1510 1512 1513 1513 1515 1517 1518 1518 1519 1522 1524 1526 1528 1529 1531 1532 1533 1533 1534 1535 1535 1536 1536 1537 1538 1540 1541 1543 1543 1544 1545 1546
1508 1508 1508 1507 1507 1508 1507 1507 1508 1510 1512 1514 1515 1517 1517 1518 1520 1520 1521 1522 1525 1527 1528 1529 1531 1533 1533 1533 1534 1534 1535 1535 1536 1537 1538 1539 1540 1541 1542 1543 1543 1544